Voltar ao catálogo

YAOGAN-30 AD

AtivoMilitarVLEO
NORAD 49026·PAYLOAD·🇨🇳 China

Lançado Jul 19, 2021 de Xichang Satellite Launch Center

Loading…

Próximas Passagens (próximas 24 horas)

TLE

AtualizadoSource: Space-Track

Época: Sep 14, 2026, 00:10 UTC

1 49026U 21065A   26257.00758049 -.00000554  00000-0 -38142-4 0  9998
2 49026  34.9925  91.5749 0004454 214.4892 145.5528 15.03005420282010

Acompanhe YAOGAN-30 AD em tempo real com AllMySat

Download on the App Store